SCP
0 0 0 0 0 0 0 0 0 0 0 0 0 0 0 0 0 0 0 0 0 0 0 0 0 0 0 0 0 0 0 0 0 0 0 0 0 0 0 0 0 0 0 0 0 0 0 0 0
0 0 0 0 0 0 0 0 0 0 0 0 0 0 0 0 0 0 0 0 0 0 0 0 0 0 0 0 0 0 0 0 0 0 0 0 0 0 0 0 0 0 0 0 0 0 0 0 0
0 0 0 0 0 0 0 0 0 0 0 0 0 0 0 0 0 0 0 0 0 0 0 0 0 0 0 0 0 0 0 0 0 0 0 0 0 0 0 0 0 0 0 0 0 0 0 0 0
0 0 0 0 0 0 0 0 0 0 0 0 0 0 0 0 0 0 0 0 0 0 0 0 0 0 0 0 0 0 0 0 0 0 0 0 0 0 0 0 0 0 0 0 0 0 0 0 0
0 0 0 0 0 0 0 0 0 0 0 0 0 0 0 0 0 0 0 0 0 0 0 0 0 0 0 0 0 0 0 0 0 0 0 0 0 0 0 0 0 0 0 0 0 0 0 0 0
0 0 0 0 0 0 0 0 0 0 0 0 0 0 0 0 0 0 0 0 0 0 0 0 0 0 0 0 0 0 0 0 0 0 0 0 0 0 0 0 0 0 0 0 0 0 0 0 0
0 0 0 0 0 0 0 0 0 0 0 0 0 0 0 0 0 0 0 0 0 0 0 0 0 0 0 0 0 0 0 0 0 0 0 0 0 0 0 0 0 0 0 0 0 0 0 0 0
0 0 0 0 0 0 0 0 0 0 0 0 0 0 0 0 0 0 0 0 0 0 0 0 0 0 0 0 0 0 0 0 0 0 0 0 0 0 0 0 0 0 0 0 0 0 0 0 0
0 0 0 0 0 0 0 0 0 0 0 0 0 0 0 0 0 0 0 0 0 0 0 0 0 0 0 0 0 0 0 0 0 0 0 0 0 0 0 0 0 0 0 0 0 0 0 0 0
0 0 0 0 0 0 0 0 0 0 0 0 0 0 0 0 0 0 0 0 0 0 0 0 0 0 0 0 0 0 0 0 0 0 0 0 0 0 0 0 0 0 0 0 0 0 0 0 0
0 0 0 0 0 0 0 0 0 0 0 0 0 0 0 0 0 0 0 0 0 0 0 0 0 0 0 0 0 0 0 0 0 0 0 0 0 0 0 0 0 0 0 0 0 0 0 0 0
0 0 0 0 0 0 0 0 0 0 0 0 0 0 0 0 0 0 0 0 0 0 0 0 0 0 0 0 0 0 0 0 0 0 0 0 0 0 0 0 0 0 0 0 0 0 0 0 0
0 0 0 0 0 0 0 0 0 0 0 0 0 0 0 0 0 0 0 0 0 0 0 0 0 0 0 0 0 0 0 0 0 0 0 0 0 0 0 0 0 0 0 0 0 0 0 0 0
0 0 0 0 0 0 0 0 0 0 0 0 0 0 0 0 0 0 0 0 0 0 0 0 0 0 0 0 0 0 0 0 0 0 0 0 0 0 0 0 0 0 0 0 0 0 0 0 0
0 0 0 0 0 0 0 0 0 0 0 0 0 0 0 0 0 0 0 0 0 0 0 0 0 0 0 0 0 0 0 0 0 0 0 0 0 0 0 0 0 0 0 0 0 0 0 0 0
0 0 0 0 0 0 0 0 0 0 0 0 0 0 0 0 0 0 0 0 0 0 0 0 0 0 0 0 0 0 0 0 0 0 0 0 0 0 0 0 0 0 0 0 0 0 0 0 0
0 0 0 0 0 0 0 0 0 0 0 0 0 0 0 0 0 0 0 0 0 0 0 0 0 0 0 0 0 0 0 0 0 0 0 0 0 0 0 0 0 0 0 0 0 0 0 0 0
0 0 0 0 0 0 0 0 0 0 0 0 0 0 0 0 0 0 0 0 0 0 0 0 0 0 0 0 0 0 0 0 0 0 0 0 0 0 0 0 0 0 0 0 0 0 0 0 0
0 0 0 0 0 0 0 0 0 0 0 0 0 0 0 0 0 0 0 0 0 0 0 0 0 0 0 0 0 0 0 0 0 0 0 0 0 0 0 0 0 0 0 0 0 0 0 0 0
0 0 0 0 0 0 0 0 0 0 0 0 0 0 0 0 0 0 0 0 0 0 0 0 0 0 0 0 0 0 0 0 0 0 0 0 0 0 0 0 0 0 0 0 0 0 0 0 0
0 0 0 0 0 0 0 0 0 0 0 0 0 0 0 0 0 0 0 0 0 0 0 0 0 0 0 0 0 0 0 0 0 0 0 0 0 0 0 0 0 0 0 0 0 0 0 0 0
0 0 0 0 0 0 0 0 0 0 0 0 0 0 0 0 0 0 0 0 0 0 0 0 0 0 0 0 0 0 0 0 0 0 0 0 0 0 0 0 0 0 0 0 0 0 0 0 0
0 0 0 0 0 0 0 0 0 0 0 0 0 0 0 0 0 0 0 0 0 0 0 0 0 0 0 0 0 0 0 0 0 0 0 0 0 0 0 0 0 0 0 0 0 0 0 0 0
0 0 0 0 0 0 0 0 0 0 0 0 0 0 0 0 0 0 0 0 0 0 0 0 0 0 0 0 0 0 0 0 0 0 0 0 0 0 0 0 0 0 0 0 0 0 0 0 0
0 0 0 0 0 0 0 0 0 0 0 0 0 0 0 0 0 0 0 0 0 0 0 0 0 0 0 0 0 0 0 0 0 0 0 0 0 0 0 0 0 0 0 0 0 0 0 0 0
0 0 0 0 0 0 0 0 0 0 0 0 0 0 0 0 0 0 0 0 0 0 0 0 0 0 0 0 0 0 0 0 0 0 0 0 0 0 0 0 0 0 0 0 0 0 0 0 0
0 0 0 0 0 0 0 0 0 0 0 0 0 0 0 0 0 0 0 0 0 0 0 0 0 0 0 0 0 0 0 0 0 0 0 0 0 0 0 0 0 0 0 0 0 0 0 0 0
0 0 0 0 0 0 0 0 0 0 0 0 0 0 0 0 0 0 0 0 0 0 0 0 0 0 0 0 0 0 0 0 0 0 0 0 0 0 0 0 0 0 0 0 0 0 0 0 0
0 0 0 0 0 0 0 0 0 0 0 0 0 0 0 0 0 0 0 0 0 0 0 0 0 0 0 0 0 0 0 0 0 0 0 0 0 0 0 0 0 0 0 0 0 0 0 0 0
0 0 0 0 0 0 0 0 0 0 0 0 0 0 0 0 0 0 0 0 0 0 0 0 0 0 0 0 0 0 0 0 0 0 0 0 0 0 0 0 0 0 0 0 0 0 0 0 0
Wind_Speed
10 8 5 2 2 5 8 6 3 1 1 2 4 3 2 3 3 5 3 4 7 8 8 8 8 9 9 9 10 10 10 10 10 9 10 11 11 11 12 12 12 12 13 13 14 14 14 14 14
8 5 3 2 4 7 6 6 4 1 1 2 2 2 2 4 5 7 3 3 5 7 7 7 8 9 9 10 10 10 10 10 10 10 10 10 11 11 11 12 12 12 13 13 14 14 14 14 14
7 5 3 3 6 8 5 2 2 2 3 2 2 2 2 3 4 4 4 3 4 6 7 7 8 9 10 10 10 10 10 9 9 9 10 10 10 11 11 11 12 12 12 13 13 13 13 13 13
3 2 3 5 11 8 5 3 1 3 2 2 2 2 4 6 4 5 5 3 4 5 6 7 8 9 9 10 9 9 10 9 9 9 9 9 10 10 11 11 11 11 12 12 13 13 13 12 12
2 3 5 8 12 7 3 3 3 1 3 3 2 1 4 5 7 6 4 3 4 5 6 6 8 8 9 9 9 9 9 9 9 9 9 9 10 10 10 11 11 11 11 12 12 12 12 12 11
3 3 6 10 11 7 4 4 3 1 1 1 3 2 3 5 6 4 4 3 4 5 6 6 7 7 8 9 9 9 9 9 9 9 8 9 9 10 10 10 11 11 11 12 12 12 12 12 11
3 4 8 10 8 6 4 4 3 2 2 1 1 2 5 4 4 4 4 3 4 5 5 4 4 5 6 7 8 8 8 9 9 9 9 9 9 9 10 10 11 11 11 11 11 12 11 11 11
3 4 8 10 9 6 3 3 2 1 1 1 2 1 3 3 3 4 4 3 4 4 4 4 3 3 4 4 7 8 8 8 8 8 8 8 8 8 9 9 10 10 10 11 11 11 11 10 10
4 5 8 7 6 3 2 2 1 1 1 2 3 5 5 7 5 5 3 3 3 3 3 3 3 3 3 4 6 6 7 7 7 6 7 5 4 4 5 7 9 10 10 10 11 10 10 9 8
4 7 9 4 5 3 2 2 1 1 1 1 3 5 6 6 5 5 4 4 3 3 3 2 2 3 3 3 3 3 3 4 3 3 3 2 3 4 5 7 9 9 9 9 9 8 7 4 3
4 6 4 4 4 3 3 3 2 2 2 1 1 3 5 5 4 4 3 3 3 3 3 2 2 3 3 2 2 2 2 2 2 3 3 3 3 3 3 3 4 5 6 4 5 4 3 3 3
7 6 5 4 4 3 3 3 3 2 1 2 1 4 5 5 5 4 4 3 3 3 3 2 2 3 3 3 2 2 2 2 2 2 3 3 2 2 2 2 3 3 2 3 2 2 3 3 4
9 7 5 4 4 3 3 3 2 3 1 2 2 3 4 4 3 2 2 2 3 3 3 2 2 3 3 3 2 3 2 2 3 2 3 3 2 2 3 2 2 3 3 3 2 3 4 4 4
3 4 5 5 5 5 5 5 5 4 1 1 1 1 3 3 3 2 1 2 3 3 3 3 3 3 3 3 3 2 2 2 3 2 3 3 2 2 3 3 2 2 3 3 3 3 4 3 4
4 5 6 6 6 4 3 7 8 4 3 2 2 2 2 2 2 2 3 2 3 3 3 3 4 3 3 3 3 3 2 2 2 2 3 3 2 3 3 3 2 2 3 3 3 3 4 4 4
5 6 6 5 6 5 5 10 4 3 4 4 4 3 2 3 2 2 2 2 2 2 3 3 3 3 3 3 3 3 3 3 2 2 2 3 3 3 3 3 2 2 3 3 3 3 4 4 4
5 6 7 5 5 4 6 8 2 3 4 4 5 4 3 3 2 2 2 2 3 3 4 4 4 4 3 3 3 3 3 3 2 2 2 2 3 3 3 3 2 3 3 3 3 3 3 4 4
5 7 7 6 3 4 6 8 3 3 3 4 4 4 3 3 3 2 2 2 3 3 4 4 4 4 4 3 3 3 3 3 2 2 2 2 2 3 3 3 2 3 3 3 3 4 4 4 4
8 8 9 7 4 4 6 8 6 4 3 4 3 3 3 2 1 2 2 2 2 3 3 4 4 4 4 3 3 3 2 2 2 1 2 3 3 3 3 3 2 3 3 4 4 4 5 4 3
7 8 8 6 3 4 6 9 6 5 5 3 2 2 1 0 1 1 2 2 2 3 3 4 4 4 4 3 3 2 3 2 2 1 2 2 3 3 3 3 2 3 4 4 4 5 3 2 2
7 7 7 7 5 5 6 8 7 3 3 2 2 0 0 0 0 1 1 1 2 2 2 3 3 3 4 4 3 3 3 2 2 2 2 2 2 3 3 3 2 3 4 4 4 4 4 3 1
6 5 7 7 5 4 3 5 4 3 3 2 2 1 1 1 1 1 1 1 1 1 2 2 3 3 4 4 4 5 4 3 2 2 2 2 2 3 3 3 3 4 3 4 3 3 3 5 3
5 7 7 7 6 6 5 5 5 2 3 3 2 1 1 2 2 2 2 1 1 1 1 2 2 2 3 4 4 4 4 3 3 3 3 3 2 3 3 3 3 4 3 4 3 3 3 3 3
6 6 5 5 3 7 7 6 5 2 3 2 1 0 1 1 2 2 1 1 1 1 1 2 2 2 3 4 4 4 4 4 4 4 4 3 2 2 2 2 3 3 3 4 4 4 3 3 3
4 3 2 2 3 5 2 4 4 0 1 1 1 0 1 1 2 2 2 1 1 1 0 1 2 2 2 3 4 4 4 4 5 5 4 3 2 1 2 3 3 3 3 4 4 4 3 3 3
3 1 1 3 4 4 2 4 2 1 2 2 2 2 2 2 2 1 1 1 0 0 0 1 2 2 2 2 3 3 4 3 3 3 3 3 3 2 3 3 3 3 3 3 4 3 3 3 3
2 2 2 3 5 5 4 3 2 0 2 3 3 4 3 3 3 2 2 1 1 0 0 1 2 2 2 2 2 3 3 3 3 3 3 2 2 3 4 4 4 3 3 3 4 3 4 4 3
2 2 1 2 3 5 4 3 2 1 1 3 4 4 4 4 4 4 3 2 2 1 1 0 1 2 2 2 2 2 3 3 3 3 3 3 3 3 4 4 4 4 3 3 3 3 3 4 3
1 1 2 3 3 3 4 3 2 1 1 2 3 4 3 3 3 3 3 3 2 2 1 0 1 1 1 2 2 2 2 2 3 2 2 3 3 3 4 4 4 4 4 4 4 4 4 4 4
2 3 2 2 4 3 3 5 1 3 3 3 3 4 4 4 3 3 3 2 2 2 2 1 0 1 1 2 2 1 2 2 2 2 2 2 3 3 3 4 4 4 4 4 5 5 5 5 5
Wind_Direction
301 278 263 257 242 236 240 239 253 294 348 23 21 21 31 20 34 109 115 71 93 113 124 129 121 119 115 111 106 104 101 99 95 98 101 100 100 97 95 92 90 89 88 87 84 82 81 79 77
292 278 258 241 236 237 238 220 224 223 106 71 38 12 35 66 64 100 96 67 98 113 123 128 121 118 118 115 111 108 105 102 98 96 99 101 102 100 97 95 92 90 89 88 86 83 82 81 79
277 264 249 225 229 235 242 219 157 134 104 89 67 21 27 66 82 96 90 91 97 106 114 120 121 119 118 116 115 112 109 105 101 101 98 101 101 101 99 96 93 91 89 89 88 85 83 82 80
268 235 244 241 241 242 251 271 85 138 115 81 94 92 74 44 52 71 91 96 98 103 109 119 121 122 120 115 113 114 112 110 105 102 102 100 102 101 100 95 93 94 93 92 89 87 86 83 80
246 237 227 236 243 246 258 262 252 188 149 144 149 133 98 71 71 81 91 88 94 97 104 119 120 125 122 118 114 111 113 112 110 106 105 103 103 101 99 96 94 94 96 95 92 89 89 85 79
238 238 234 235 238 231 239 258 251 206 160 139 164 190 111 84 77 87 88 79 86 94 101 113 114 121 123 120 116 112 109 109 108 108 106 103 99 103 101 97 95 95 96 97 93 91 89 85 78
246 243 246 252 249 233 231 261 255 225 191 234 225 166 128 90 76 91 88 77 79 87 96 104 114 120 122 121 116 113 109 107 106 103 103 100 96 100 101 99 97 96 95 93 93 92 89 85 79
263 267 251 249 249 248 263 269 276 275 243 358 2 145 126 115 102 96 90 84 80 81 89 97 101 113 115 123 122 115 109 105 106 103 101 101 97 97 102 99 98 98 97 95 94 94 90 85 78
263 247 246 251 256 260 281 286 291 29 57 63 49 55 79 116 117 109 102 92 91 85 85 96 96 98 105 119 122 116 113 108 108 108 110 110 104 96 103 102 101 99 99 97 96 97 92 85 75
223 238 243 271 289 291 293 299 271 149 144 108 59 66 95 114 128 135 142 144 134 120 95 94 97 102 102 109 110 112 115 119 108 105 113 101 88 88 98 106 103 100 99 98 97 95 90 82 75
225 243 256 274 294 306 300 307 302 207 211 221 207 143 131 130 139 154 162 160 152 135 117 101 101 98 98 90 103 93 88 95 95 98 98 99 94 100 100 111 106 107 106 101 102 98 88 77 72
241 251 265 274 293 292 285 288 295 301 196 37 9 143 143 151 164 176 177 168 141 134 125 95 95 97 90 87 90 88 83 83 78 77 82 87 94 96 91 105 118 116 109 103 97 97 88 84 80
239 245 261 272 275 285 294 272 277 273 345 42 51 108 145 160 168 172 163 142 134 143 139 116 100 101 101 96 93 90 82 83 84 71 69 79 95 106 103 93 104 103 105 106 94 90 86 78 70
256 251 252 255 253 259 261 261 252 240 203 202 184 157 159 165 164 151 161 162 157 154 149 130 115 106 103 98 90 88 82 78 82 78 72 70 84 97 101 88 93 103 103 99 100 97 92 84 79
250 263 259 247 244 234 254 257 236 216 197 217 223 192 166 165 158 165 191 179 174 164 146 137 128 114 112 105 100 90 84 88 83 79 80 76 79 97 103 97 87 103 101 98 97 91 92 89 84
242 241 245 226 227 224 235 251 221 186 206 223 229 221 191 180 179 183 186 163 154 146 138 133 131 124 120 115 111 105 96 89 85 84 86 87 83 96 106 97 86 101 103 108 111 106 103 97 89
229 245 250 246 226 226 226 253 219 204 216 231 230 225 215 197 199 191 182 165 154 149 146 140 132 136 135 125 115 106 99 90 82 82 81 89 93 95 107 104 92 111 109 109 118 110 109 108 97
256 262 267 262 250 255 246 253 244 229 233 244 235 220 218 211 204 174 171 160 153 149 147 147 144 144 141 136 120 104 94 93 86 80 86 95 93 94 106 112 102 118 117 109 107 112 100 106 106
286 282 281 284 286 271 258 267 266 250 241 252 256 244 232 213 166 150 151 149 140 139 147 152 151 157 152 157 158 147 135 122 110 94 102 107 107 104 102 106 118 128 122 122 119 117 115 107 108
281 284 288 294 312 286 269 271 269 248 244 242 248 248 240 131 95 103 95 117 140 153 159 157 156 160 159 161 163 154 140 128 128 125 107 94 106 109 112 103 123 132 125 122 122 123 117 119 117
279 273 281 291 307 271 273 273 250 234 234 254 268 282 341 111 58 123 122 105 122 147 168 169 167 161 159 152 138 132 117 113 120 139 134 111 115 115 114 108 119 128 127 136 137 136 127 141 126
283 313 302 292 288 267 238 277 259 236 229 237 260 288 330 356 7 46 104 108 109 170 165 164 163 168 167 160 159 155 157 156 165 156 138 129 119 115 111 116 124 129 127 130 143 134 131 140 145
295 308 290 271 264 273 248 257 268 202 245 250 250 300 9 5 6 29 52 88 99 95 157 150 149 168 169 163 162 165 162 147 133 136 135 139 132 122 116 130 136 132 134 137 135 125 123 134 140
307 306 284 257 246 252 233 220 263 233 238 249 238 235 6 1 5 20 40 58 49 56 88 148 157 167 176 165 163 170 163 149 142 146 150 148 136 126 129 143 139 136 138 146 144 137 129 127 125
330 344 324 280 228 241 235 216 240 210 67 68 7 26 22 19 9 11 25 50 57 47 41 168 158 167 176 173 170 176 171 164 161 159 156 149 147 149 179 153 141 142 146 149 144 140 141 134 136
292 269 235 265 270 293 294 241 232 111 59 52 38 21 38 33 4 354 18 45 70 90 164 199 179 175 176 181 187 177 171 170 165 158 149 158 169 180 168 157 149 149 150 150 147 144 151 140 144
299 260 261 275 286 274 244 230 225 118 39 35 31 27 21 9 2 360 14 24 36 42 241 211 196 185 184 190 196 193 177 169 165 153 146 159 174 174 159 156 156 158 155 156 156 156 159 154 154
269 309 324 248 275 271 262 248 257 290 326 22 20 11 4 4 6 9 13 13 18 14 340 277 196 196 194 196 204 207 187 177 161 149 159 166 172 158 165 165 163 162 161 160 159 160 159 155 161
196 238 246 254 260 267 278 273 359 22 15 28 10 5 353 352 350 351 350 353 359 13 12 318 213 209 205 198 205 210 191 161 152 153 166 172 166 159 172 174 169 168 170 169 165 173 169 167 169
206 230 204 218 258 248 266 269 4 67 40 35 14 357 355 355 345 345 344 346 357 9 11 348 257 216 225 212 202 208 190 167 165 168 171 177 173 168 174 173 177 182 179 175 177 180 178 180 181